Flag for United Kingdom Weather past 2 weeks in Swindon, England, United Kingdom

Now
68 °F

Clear.


Feels Like: 68 °F
Forecast: 58 / 75 °F
Wind: 8 mph from Northeast

Location: Brize Norton

Current Time: Jul 1, 2015 at 1:17:46 AM

Latest Report: Jul 1, 2015 at 12:50 AM


Visibility: 10 mi

Pressure: 29.95 "Hg

Humidity: 64%

Dew point: 55 °F

Location of SwindonLocation

Historic Weather in Swindon — Graph

°F

Swindon temperature yesterday

Maximum temperature yesterday: 84 °F (at 3:50 PM)
Minimum temperature yesterday: 52 °F (at 4:50 AM)
Average temperature yesterday: 70 °F

Past Weeks' High & Low Weather Summary

 TemperatureHumidityPressure
High84 °F (Jun 30, 3:50 PM)100% (Jun 22, 3:50 AM)30.27 "Hg (Jun 22, 3:50 AM)
Low48 °F (Jun 19, 4:50 AM)34% (Jun 30, 11:50 AM)29.80 "Hg (Jun 22, 11:50 AM)
Average62 °F70%30.10 "Hg
* Reported Jun 15 11:50 PM — Jun 30 11:50 PM, Swindon, Weather by CustomWeather, © 2015

Note: Actual official high and low records may vary slightly from our data, if they occured in-between our weather recording intervals... More about our weather records

Advertising

Swindon weather history for previous 24 hours

 ConditionsComfort  
Time TempWeatherWind HumidityBarometerVisibility
11:50 PM
Tue, Jun 30
70 °FClear.6 mph64%29.95 "Hg10 mi
10:50 PM72 °FClear.2 mph57%29.98 "Hg10 mi
9:50 PM73 °FSunny.6 mph57%29.98 "Hg10 mi
8:50 PM79 °FSunny.6 mph45%29.98 "Hg10 mi
7:50 PM81 °FSunny.7 mph42%29.98 "Hg10 mi
6:50 PM82 °FSunny.9 mph40%29.98 "Hg10 mi
5:50 PM84 °FSunny.9 mph37%29.98 "Hg10 mi
4:50 PM84 °FSunny.9 mph37%29.98 "Hg10 mi
3:50 PM84 °FSunny.7 mph35%30.01 "Hg10 mi
2:50 PM82 °FSunny.8 mph35%30.04 "Hg10 mi
1:50 PM81 °FSunny.8 mph34%30.04 "Hg10 mi
12:50 PM79 °FSunny.9 mph34%30.07 "Hg10 mi
11:50 AM77 °FSunny.7 mph34%30.07 "Hg10 mi
10:50 AM75 °FSunny.9 mph39%30.09 "Hg10 mi
9:50 AM70 °FSunny.6 mph57%30.09 "Hg10 mi
8:50 AM66 °FSunny.7 mph64%30.09 "Hg10 mi
7:50 AM63 °FSunny.3 mph73%30.12 "Hg10 mi
6:50 AM59 °FSunny.2 mph77%30.12 "Hg10 mi
5:50 AM55 °FClear.2 mph82%30.12 "Hg10 mi
4:50 AM52 °FClear.1 mph94%30.12 "Hg10 mi
3:50 AM54 °FClear.1 mph88%30.12 "Hg10 mi
2:50 AM54 °FClear.1 mph94%30.15 "Hg10 mi
1:50 AM55 °FClear.1 mph82%30.15 "Hg10 mi
Weather by CustomWeather, © 2015

See weather overviewHow to use our weather pages